Weather History for Chicago Executive, IL

Change the Weather History Date:

Friday, May 24, 2013

  Actual Average Record
Temperature  
Mean Temperature 48 °F 61 °F  
Max Temperature 55 °F 72 °F 90 °F (2012)
Min Temperature 40 °F 50 °F 40 °F (2013)
Degree Days  
Heating Degree Days 17 6  
Month to date heating degree days 189 212  
Since 1 July heating degree days 6279 6325  
Cooling Degree Days 0 2  
Month to date cooling degree days 44 23  
Year to date cooling degree days 53 27  
Moisture  
Dew Point 33 °F    
Average Humidity 59    
Maximum Humidity 77    
Minimum Humidity 43    
Precipitation  
Precipitation 0.00 in 0.12 in 0.46 in (1998)
Month to date precipitation 2.53 2.96  
Year to date precipitation 8.98 10.76  
Sea Level Pressure  
Sea Level Pressure 30.40 in    
Wind  
Wind Speed 6 mph (NE)    
Max Wind Speed 17 mph    
Max Gust Speed 25 mph    
Visibility 10 miles    
Events      
T = Trace of Precipitation, MM = Missing Value Source: NWS Daily Summary

Daily Weather History Graph

Daily Weather History Graph

Search for Another Location

Airport:

Trip Planner

Search our weather history database for the weather conditions in past years. The results will help you decide how hot, cold, wet, or windy it might be!

Date:

Astronomy

May. 24, 2013 Rise Set
Actual Time 5:22 AM CDT 8:14 PM CDT
Civil Twilight 4:49 AM CDT 8:47 PM CDT
Nautical Twilight 4:08 AM CDT 9:29 PM CDT
Astronomical Twilight 3:19 AM CDT 10:18 PM CDT
Moon 7:56 PM CDT (5/24) 4:55 AM CDT (5/24)
Length of Visible Light 15h 57m
Length of Day
14h 51m
Full, 100% of the Moon is Illuminated
May 24
Full
May 24
Full
May 31
Last Quarter
Jun 8
New
Jun 16
First Quarter

Hourly Weather History & Observations

Time (CDT) Temp. Windchill Dew Point Humidity Pressure Visibility Wind Dir Wind Speed Gust Speed Precip Events Conditions
12:52 AM 43.0 °F 36.8 °F 33.1 °F 68% 30.32 in 10.0 mi NNE 11.5 mph - N/A   Clear
1:52 AM 43.0 °F 36.0 °F 32.0 °F 65% 30.33 in 10.0 mi NNE 13.8 mph 19.6 mph N/A   Clear
2:52 AM 43.0 °F 37.7 °F 32.0 °F 65% 30.33 in 10.0 mi NNE 9.2 mph 17.3 mph N/A   Clear
3:52 AM 43.0 °F 36.8 °F 30.9 °F 62% 30.34 in 10.0 mi NNE 11.5 mph - N/A   Clear
4:52 AM 42.1 °F 38.4 °F 32.0 °F 67% 30.36 in 10.0 mi North 5.8 mph - N/A   Clear
5:52 AM 39.9 °F 36.7 °F 33.1 °F 77% 30.38 in 10.0 mi North 4.6 mph - N/A   Clear
6:52 AM 45.0 °F 39.3 °F 34.0 °F 65% 30.40 in 10.0 mi NNE 11.5 mph 18.4 mph N/A   Clear
7:52 AM 46.9 °F - 34.0 °F 61% 30.43 in 10.0 mi NE 10.4 mph - N/A   Clear
8:52 AM 48.0 °F - 35.1 °F 61% 30.46 in 10.0 mi North 10.4 mph - N/A   Clear
9:52 AM 50.0 °F - 34.0 °F 54% 30.46 in 10.0 mi North 5.8 mph - N/A   Clear
10:52 AM 53.1 °F - 37.0 °F 55% 30.45 in 10.0 mi NE 8.1 mph - N/A   Clear
11:52 AM 54.0 °F - 33.1 °F 45% 30.45 in 10.0 mi NE 8.1 mph - N/A   Clear
12:52 PM 54.0 °F - 33.1 °F 45% 30.45 in 10.0 mi NE 11.5 mph 18.4 mph N/A   Clear
1:52 PM 53.1 °F - 32.0 °F 45% 30.44 in 10.0 mi East 6.9 mph - N/A   Clear
2:52 PM 54.0 °F - 32.0 °F 43% 30.44 in 10.0 mi Variable 6.9 mph - N/A   Clear
3:52 PM 54.0 °F - 33.1 °F 45% 30.41 in 10.0 mi East 6.9 mph - N/A   Clear
4:52 PM 52.0 °F - 32.0 °F 47% 30.39 in 10.0 mi East 8.1 mph - N/A   Clear
5:52 PM 51.1 °F - 32.0 °F 48% 30.38 in 10.0 mi ENE 5.8 mph - N/A   Clear
6:52 PM 50.0 °F - 32.0 °F 50% 30.38 in 10.0 mi NE 5.8 mph - N/A   Clear
7:52 PM 48.0 °F - 33.1 °F 56% 30.38 in 10.0 mi Calm Calm - N/A   Clear
8:52 PM 46.0 °F - 35.1 °F 66% 30.39 in 10.0 mi Calm Calm - N/A   Clear
9:52 PM 44.1 °F 42.5 °F 34.0 °F 68% 30.41 in 10.0 mi North 3.5 mph - N/A   Clear
10:52 PM 42.1 °F - 34.0 °F 73% 30.41 in 10.0 mi Calm Calm - N/A   Clear
11:52 PM 43.0 °F - 35.1 °F 74% 30.41 in 10.0 mi Calm Calm - N/A   Clear